User: anonymous   Login
Location: Unspecified
(0.0000°N, 0.0000°E)
Time: 22:33:29
(UTC+00:00)
Language:

PACE - Orbit

View from above orbital plane
View from above orbital plane
View from above satellite
View from above satellite

Ground track
Ground track

The orbit data is extracted from the following two-line orbital elements,

1 40022U 14033N   23083.37865979  .00025624  00000-0  25258-2 0  9992
2 40022  97.9895  27.7505 0011300 214.4911 145.5575 14.91949613475892
Epoch (UTC): 24 March 2023 09:05:16
Eccentricity: 0.0011300
inclination: 97.9895°
perigee height: 584 km
apogee height: 600 km
right ascension of ascending node: 27.7505°
argument of perigee: 214.4911°
revolutions per day: 14.91949613
mean anomaly at epoch: 145.5575°
orbit number at epoch: 47589

The dashed part of the orbit path shows where the satellite is in the earth's shadow,  

DLR